QPF
0.00 0.00 0.00 0.00 0.00 0.00 0.00 0.00 0.01 0.02 0.05 0.08 0.10 0.15 0.17 0.26 0.38 0.41 0.39 0.39 0.41 0.40 0.38 0.32 0.25 0.18 0.14 0.12 0.08 0.06 0.04 0.02 0.01 0.01 0.01 0.01 0.00 0.00 0.00 0.00 0.00 0.00 0.00
0.00 0.00 0.00 0.00 0.00 0.00 0.00 0.01 0.03 0.07 0.13 0.21 0.31 0.43 0.55 0.67 0.72 0.76 0.78 0.74 0.62 0.53 0.45 0.35 0.26 0.18 0.13 0.09 0.07 0.04 0.03 0.02 0.01 0.00 0.00 0.00 0.00 0.00 0.00 0.00 0.00 0.00 0.00
0.00 0.00 0.00 0.00 0.00 0.00 0.01 0.04 0.07 0.13 0.25 0.39 0.53 0.68 0.85 0.95 0.93 0.87 0.82 0.79 0.71 0.60 0.47 0.35 0.25 0.17 0.12 0.08 0.05 0.03 0.02 0.01 0.01 0.00 0.00 0.00 0.00 0.00 0.00 0.00 0.00 0.00 0.00
0.00 0.00 0.00 0.00 0.00 0.01 0.03 0.06 0.11 0.22 0.40 0.62 0.86 1.00 1.11 1.11 0.97 0.83 0.74 0.68 0.62 0.55 0.43 0.32 0.22 0.14 0.08 0.04 0.02 0.01 0.01 0.00 0.00 0.00 0.00 0.00 0.00 0.00 0.00 0.00 0.00 0.00 0.00
0.00 0.00 0.00 0.00 0.01 0.03 0.05 0.10 0.19 0.36 0.56 0.76 0.92 1.05 1.10 0.97 0.77 0.61 0.52 0.47 0.43 0.38 0.30 0.21 0.13 0.08 0.05 0.02 0.01 0.01 0.00 0.00 0.00 0.00 0.00 0.00 0.00 0.00 0.00 0.00 0.00 0.00 0.00
0.00 0.00 0.00 0.01 0.03 0.05 0.09 0.16 0.29 0.49 0.69 0.81 0.95 0.99 0.92 0.74 0.52 0.37 0.30 0.27 0.25 0.22 0.17 0.13 0.09 0.06 0.03 0.02 0.01 0.01 0.00 0.00 0.00 0.00 0.00 0.00 0.00 0.00 0.00 0.00 0.00 0.00 0.00
0.01 0.01 0.02 0.03 0.05 0.10 0.17 0.27 0.41 0.57 0.71 0.83 0.92 0.82 0.64 0.48 0.35 0.26 0.22 0.20 0.18 0.15 0.12 0.08 0.04 0.03 0.01 0.01 0.01 0.00 0.00 0.00 0.00 0.00 0.00 0.00 0.00 0.00 0.00 0.00 0.00 0.00 0.00
0.02 0.03 0.04 0.05 0.10 0.16 0.23 0.32 0.42 0.52 0.55 0.53 0.48 0.41 0.33 0.25 0.20 0.17 0.15 0.14 0.10 0.07 0.05 0.03 0.02 0.01 0.01 0.00 0.00 0.00 0.00 0.00 0.00 0.00 0.00 0.00 0.00 0.00 0.00 0.00 0.00 0.00 0.00
0.02 0.03 0.04 0.06 0.09 0.13 0.17 0.21 0.24 0.27 0.24 0.20 0.17 0.14 0.12 0.11 0.11 0.10 0.07 0.05 0.04 0.03 0.02 0.01 0.01 0.00 0.00 0.00 0.00 0.00 0.00 0.00 0.00 0.00 0.00 0.00 0.00 0.00 0.00 0.00 0.00 0.00 0.01
0.02 0.03 0.04 0.05 0.06 0.06 0.06 0.07 0.08 0.09 0.08 0.07 0.06 0.05 0.04 0.03 0.03 0.03 0.03 0.03 0.02 0.01 0.01 0.01 0.00 0.00 0.00 0.00 0.00 0.00 0.00 0.00 0.00 0.00 0.00 0.00 0.00 0.00 0.00 0.00 0.00 0.00 0.00
0.02 0.02 0.03 0.02 0.02 0.01 0.01 0.02 0.02 0.03 0.02 0.02 0.01 0.01 0.01 0.01 0.01 0.01 0.01 0.01 0.01 0.01 0.00 0.00 0.00 0.00 0.00 0.00 0.00 0.00 0.00 0.00 0.00 0.00 0.00 0.00 0.00 0.00 0.00 0.00 0.00 0.00 0.00
0.01 0.02 0.02 0.01 0.01 0.00 0.00 0.00 0.01 0.01 0.01 0.00 0.00 0.00 0.00 0.01 0.01 0.00 0.00 0.00 0.00 0.00 0.00 0.00 0.00 0.00 0.00 0.00 0.00 0.00 0.00 0.00 0.00 0.00 0.00 0.00 0.00 0.00 0.00 0.00 0.00 0.00 0.00
0.01 0.01 0.01 0.01 0.00 0.00 0.00 0.00 0.00 0.00 0.00 0.00 0.00 0.00 0.00 0.00 0.00 0.00 0.00 0.00 0.00 0.00 0.00 0.00 0.00 0.00 0.00 0.00 0.00 0.00 0.00 0.00 0.00 0.00 0.00 0.00 0.00 0.00 0.00 0.00 0.00 0.00 0.00
0.01 0.01 0.00 0.00 0.00 0.00 0.00 0.00 0.00 0.00 0.00 0.00 0.00 0.00 0.00 0.00 0.00 0.00 0.00 0.00 0.00 0.00 0.00 0.00 0.00 0.00 0.00 0.00 0.00 0.00 0.00 0.00 0.00 0.00 0.00 0.00 0.00 0.00 0.00 0.00 0.00 0.00 0.00
0.01 0.01 0.01 0.00 0.00 0.00 0.00 0.00 0.00 0.00 0.00 0.00 0.00 0.00 0.00 0.01 0.00 0.01 0.01 0.00 0.00 0.00 0.00 0.00 0.00 0.00 0.00 0.00 0.00 0.00 0.00 0.00 0.00 0.00 0.00 0.00 0.00 0.00 0.00 0.01 0.01 0.01 0.01
0.01 0.00 0.00 0.00 0.00 0.00 0.00 0.00 0.00 0.01 0.01 0.01 0.02 0.02 0.02 0.02 0.02 0.01 0.01 0.01 0.00 0.00 0.00 0.00 0.00 0.00 0.00 0.00 0.00 0.00 0.00 0.00 0.00 0.00 0.00 0.00 0.00 0.00 0.00 0.00 0.01 0.03 0.03
0.01 0.00 0.00 0.00 0.00 0.00 0.00 0.00 0.01 0.01 0.02 0.03 0.04 0.04 0.04 0.03 0.02 0.01 0.01 0.00 0.00 0.00 0.00 0.00 0.00 0.00 0.00 0.00 0.00 0.00 0.00 0.00 0.00 0.00 0.00 0.00 0.00 0.00 0.00 0.00 0.00 0.01 0.01
0.00 0.00 0.00 0.00 0.00 0.00 0.01 0.01 0.02 0.03 0.03 0.04 0.04 0.04 0.03 0.02 0.01 0.01 0.00 0.00 0.00 0.00 0.00 0.00 0.00 0.00 0.00 0.00 0.00 0.00 0.00 0.00 0.00 0.00 0.00 0.00 0.00 0.00 0.01 0.00 0.00 0.00 0.00
0.00 0.00 0.00 0.00 0.01 0.01 0.02 0.02 0.04 0.04 0.04 0.03 0.03 0.02 0.01 0.01 0.00 0.00 0.00 0.00 0.00 0.00 0.00 0.00 0.00 0.00 0.00 0.00 0.00 0.00 0.00 0.00 0.00 0.00 0.00 0.00 0.00 0.01 0.01 0.01 0.01 0.01 0.00
0.00 0.00 0.00 0.01 0.01 0.02 0.02 0.03 0.03 0.02 0.02 0.01 0.01 0.01 0.00 0.00 0.00 0.00 0.00 0.00 0.00 0.00 0.00 0.00 0.00 0.00 0.00 0.00 0.00 0.00 0.00 0.00 0.00 0.00 0.00 0.00 0.01 0.01 0.01 0.01 0.01 0.02 0.01
0.00 0.00 0.01 0.01 0.01 0.02 0.01 0.01 0.01 0.01 0.00 0.00 0.00 0.00 0.00 0.00 0.00 0.00 0.00 0.00 0.00 0.00 0.00 0.00 0.00 0.00 0.00 0.00 0.00 0.00 0.00 0.00 0.00 0.00 0.00 0.00 0.01 0.01 0.00 0.01 0.01 0.02 0.02
0.00 0.01 0.01 0.01 0.01 0.01 0.01 0.01 0.01 0.00 0.00 0.00 0.00 0.00 0.00 0.00 0.00 0.00 0.00 0.00 0.00 0.00 0.00 0.00 0.00 0.00 0.00 0.00 0.00 0.00 0.00 0.00 0.00 0.01 0.01 0.01 0.01 0.01 0.01 0.01 0.01 0.02 0.02
0.00 0.01 0.01 0.01 0.00 0.00 0.00 0.00 0.00 0.00 0.00 0.00 0.00 0.00 0.00 0.00 0.00 0.00 0.00 0.00 0.00 0.00 0.00 0.00 0.00 0.00 0.00 0.00 0.00 0.00 0.00 0.00 0.00 0.01 0.01 0.01 0.01 0.01 0.01 0.01 0.02 0.02 0.02
0.00 0.00 0.00 0.00 0.00 0.00 0.00 0.00 0.00 0.00 0.00 0.00 0.00 0.00 0.01 0.00 0.00 0.00 0.00 0.00 0.00 0.00 0.00 0.00 0.00 0.00 0.00 0.00 0.00 0.00 0.00 0.00 0.00 0.00 0.01 0.01 0.01 0.01 0.01 0.01 0.02 0.03 0.03
0.01 0.00 0.00 0.00 0.00 0.00 0.00 0.00 0.00 0.00 0.00 0.00 0.00 0.00 0.00 0.00 0.00 0.00 0.00 0.00 0.00 0.00 0.00 0.00 0.00 0.00 0.00 0.00 0.00 0.00 0.00 0.00 0.00 0.00 0.00 0.01 0.01 0.01 0.01 0.01 0.02 0.03 0.03
0.00 0.00 0.00 0.00 0.00 0.00 0.00 0.00 0.00 0.00 0.00 0.00 0.00 0.00 0.00 0.00 0.00 0.00 0.00 0.00 0.00 0.00 0.00 0.00 0.00 0.00 0.00 0.01 0.00 0.00 0.01 0.01 0.01 0.01 0.01 0.01 0.02 0.02 0.02 0.02 0.03 0.04 0.04
MSLP
1007.16 1006.96 1006.82 1006.76 1006.80 1006.98 1007.32 1007.85 1008.56 1009.42 1010.40 1011.43 1012.44 1013.37 1014.18 1014.84 1015.35 1015.74 1016.04 1016.29 1016.53 1016.79 1017.09 1017.43 1017.81 1018.20 1018.60 1018.99 1019.35 1019.67 1019.94 1020.18 1020.37 1020.53 1020.65 1020.74 1020.81 1020.86 1020.88 1020.87 1020.85 1020.80 1020.72
1007.00 1006.79 1006.63 1006.55 1006.56 1006.72 1007.05 1007.58 1008.33 1009.26 1010.32 1011.44 1012.54 1013.55 1014.41 1015.10 1015.61 1015.98 1016.24 1016.45 1016.65 1016.89 1017.17 1017.50 1017.87 1018.26 1018.65 1019.02 1019.35 1019.65 1019.92 1020.15 1020.36 1020.55 1020.72 1020.87 1020.98 1021.06 1021.11 1021.11 1021.08 1021.02 1020.93
1007.08 1006.88 1006.73 1006.64 1006.63 1006.75 1007.06 1007.58 1008.32 1009.27 1010.36 1011.52 1012.66 1013.71 1014.60 1015.30 1015.80 1016.15 1016.39 1016.58 1016.77 1016.99 1017.27 1017.60 1017.96 1018.34 1018.71 1019.06 1019.37 1019.64 1019.89 1020.12 1020.34 1020.56 1020.77 1020.95 1021.11 1021.23 1021.29 1021.30 1021.25 1021.17 1021.06
1007.45 1007.28 1007.15 1007.06 1007.04 1007.13 1007.39 1007.86 1008.56 1009.46 1010.53 1011.67 1012.80 1013.84 1014.73 1015.42 1015.92 1016.26 1016.50 1016.70 1016.89 1017.13 1017.42 1017.76 1018.13 1018.51 1018.86 1019.18 1019.45 1019.69 1019.92 1020.14 1020.36 1020.60 1020.83 1021.05 1021.23 1021.37 1021.43 1021.42 1021.36 1021.24 1021.09
1008.10 1007.99 1007.89 1007.81 1007.78 1007.83 1008.02 1008.42 1009.03 1009.85 1010.83 1011.90 1012.96 1013.95 1014.80 1015.47 1015.97 1016.33 1016.59 1016.81 1017.05 1017.32 1017.65 1018.02 1018.40 1018.78 1019.12 1019.41 1019.65 1019.86 1020.06 1020.26 1020.47 1020.71 1020.94 1021.17 1021.36 1021.48 1021.53 1021.50 1021.39 1021.22 1021.02
1009.02 1008.97 1008.92 1008.85 1008.80 1008.81 1008.93 1009.22 1009.72 1010.41 1011.26 1012.21 1013.17 1014.08 1014.87 1015.51 1016.00 1016.38 1016.68 1016.95 1017.25 1017.58 1017.96 1018.37 1018.78 1019.16 1019.49 1019.76 1019.98 1020.15 1020.31 1020.48 1020.67 1020.88 1021.11 1021.31 1021.48 1021.58 1021.59 1021.51 1021.34 1021.12 1020.86
1010.12 1010.14 1010.14 1010.11 1010.05 1010.01 1010.06 1010.24 1010.60 1011.14 1011.84 1012.64 1013.47 1014.27 1014.99 1015.59 1016.08 1016.48 1016.82 1017.16 1017.52 1017.92 1018.36 1018.81 1019.25 1019.63 1019.96 1020.20 1020.38 1020.52 1020.64 1020.77 1020.93 1021.10 1021.29 1021.46 1021.59 1021.64 1021.60 1021.46 1021.24 1020.94 1020.61
1011.30 1011.41 1011.47 1011.47 1011.42 1011.35 1011.33 1011.41 1011.64 1012.03 1012.57 1013.22 1013.91 1014.60 1015.23 1015.79 1016.26 1016.68 1017.07 1017.47 1017.89 1018.35 1018.83 1019.31 1019.76 1020.15 1020.45 1020.67 1020.82 1020.92 1021.00 1021.08 1021.19 1021.32 1021.46 1021.58 1021.65 1021.65 1021.56 1021.36 1021.07 1020.72 1020.33
1012.46 1012.66 1012.80 1012.85 1012.81 1012.73 1012.67 1012.67 1012.79 1013.06 1013.45 1013.95 1014.51 1015.09 1015.65 1016.15 1016.62 1017.04 1017.46 1017.90 1018.36 1018.85 1019.36 1019.84 1020.29 1020.65 1020.93 1021.12 1021.22 1021.28 1021.31 1021.35 1021.41 1021.49 1021.58 1021.65 1021.66 1021.61 1021.46 1021.21 1020.87 1020.46 1020.02
1013.54 1013.83 1014.05 1014.15 1014.15 1014.09 1014.01 1013.97 1014.01 1014.18 1014.46 1014.85 1015.30 1015.78 1016.26 1016.72 1017.16 1017.58 1018.01 1018.46 1018.93 1019.42 1019.91 1020.37 1020.78 1021.11 1021.34 1021.48 1021.54 1021.55 1021.55 1021.54 1021.56 1021.59 1021.63 1021.65 1021.61 1021.51 1021.31 1021.02 1020.64 1020.20 1019.72
1014.47 1014.86 1015.16 1015.33 1015.38 1015.35 1015.28 1015.23 1015.24 1015.35 1015.56 1015.86 1016.23 1016.64 1017.06 1017.47 1017.88 1018.29 1018.70 1019.13 1019.57 1020.02 1020.47 1020.88 1021.22 1021.49 1021.66 1021.74 1021.76 1021.73 1021.68 1021.64 1021.62 1021.61 1021.60 1021.58 1021.50 1021.36 1021.12 1020.80 1020.40 1019.93 1019.43
1015.29 1015.76 1016.13 1016.37 1016.48 1016.49 1016.45 1016.42 1016.42 1016.51 1016.68 1016.94 1017.25 1017.61 1017.98 1018.36 1018.73 1019.10 1019.48 1019.87 1020.26 1020.65 1021.02 1021.35 1021.61 1021.80 1021.90 1021.92 1021.89 1021.82 1021.73 1021.66 1021.60 1021.56 1021.52 1021.46 1021.34 1021.16 1020.90 1020.55 1020.12 1019.64 1019.12
1016.02 1016.56 1016.98 1017.27 1017.43 1017.49 1017.49 1017.48 1017.50 1017.59 1017.75 1017.99 1018.28 1018.60 1018.94 1019.29 1019.63 1019.96 1020.30 1020.63 1020.96 1021.27 1021.55 1021.79 1021.96 1022.06 1022.09 1022.05 1021.96 1021.85 1021.74 1021.63 1021.55 1021.47 1021.39 1021.29 1021.14 1020.92 1020.62 1020.25 1019.80 1019.30 1018.76
1016.73 1017.30 1017.75 1018.06 1018.25 1018.34 1018.38 1018.40 1018.45 1018.55 1018.72 1018.95 1019.22 1019.54 1019.86 1020.18 1020.49 1020.80 1021.08 1021.36 1021.62 1021.85 1022.05 1022.19 1022.28 1022.30 1022.25 1022.16 1022.02 1021.88 1021.73 1021.59 1021.47 1021.36 1021.24 1021.09 1020.90 1020.63 1020.30 1019.88 1019.41 1018.88 1018.32
1017.46 1018.03 1018.47 1018.78 1018.97 1019.08 1019.13 1019.17 1019.24 1019.35 1019.53 1019.77 1020.04 1020.35 1020.66 1020.97 1021.26 1021.54 1021.79 1022.02 1022.22 1022.38 1022.51 1022.57 1022.58 1022.53 1022.43 1022.28 1022.10 1021.91 1021.73 1021.55 1021.39 1021.23 1021.06 1020.86 1020.60 1020.29 1019.91 1019.45 1018.94 1018.38 1017.80
1018.22 1018.76 1019.17 1019.45 1019.62 1019.71 1019.76 1019.80 1019.88 1020.01 1020.19 1020.43 1020.71 1021.01 1021.32 1021.62 1021.90 1022.16 1022.38 1022.58 1022.74 1022.85 1022.91 1022.93 1022.88 1022.77 1022.62 1022.42 1022.20 1021.97 1021.74 1021.52 1021.30 1021.09 1020.85 1020.58 1020.27 1019.90 1019.46 1018.96 1018.40 1017.81 1017.20
1019.02 1019.50 1019.85 1020.08 1020.21 1020.27 1020.31 1020.34 1020.42 1020.55 1020.73 1020.97 1021.24 1021.54 1021.84 1022.14 1022.41 1022.65 1022.86 1023.03 1023.16 1023.25 1023.27 1023.24 1023.15 1023.01 1022.81 1022.58 1022.32 1022.05 1021.77 1021.49 1021.21 1020.93 1020.62 1020.28 1019.90 1019.46 1018.97 1018.42 1017.83 1017.21 1016.57
1019.81 1020.23 1020.52 1020.69 1020.77 1020.79 1020.80 1020.83 1020.89 1021.01 1021.19 1021.42 1021.69 1021.98 1022.27 1022.55 1022.82 1023.05 1023.25 1023.41 1023.52 1023.57 1023.58 1023.52 1023.40 1023.22 1022.99 1022.72 1022.43 1022.11 1021.78 1021.44 1021.10 1020.74 1020.37 1019.96 1019.51 1019.01 1018.47 1017.88 1017.26 1016.62 1015.98
1020.56 1020.91 1021.14 1021.26 1021.29 1021.29 1021.28 1021.29 1021.35 1021.46 1021.63 1021.85 1022.11 1022.38 1022.66 1022.93 1023.18 1023.40 1023.58 1023.72 1023.81 1023.85 1023.83 1023.74 1023.60 1023.40 1023.14 1022.84 1022.50 1022.14 1021.76 1021.37 1020.96 1020.54 1020.10 1019.62 1019.12 1018.58 1018.00 1017.39 1016.76 1016.11 1015.47
1021.24 1021.53 1021.71 1021.78 1021.79 1021.77 1021.75 1021.76 1021.82 1021.93 1022.09 1022.30 1022.54 1022.80 1023.06 1023.30 1023.53 1023.72 1023.88 1023.99 1024.06 1024.07 1024.03 1023.93 1023.76 1023.53 1023.25 1022.91 1022.54 1022.14 1021.72 1021.27 1020.81 1020.34 1019.84 1019.32 1018.77 1018.20 1017.60 1016.98 1016.35 1015.72 1015.10
1021.82 1022.07 1022.20 1022.26 1022.26 1022.23 1022.22 1022.24 1022.30 1022.42 1022.58 1022.77 1023.00 1023.23 1023.47 1023.69 1023.88 1024.04 1024.17 1024.25 1024.29 1024.27 1024.19 1024.06 1023.86 1023.61 1023.30 1022.94 1022.54 1022.11 1021.65 1021.17 1020.67 1020.15 1019.62 1019.06 1018.49 1017.90 1017.30 1016.69 1016.07 1015.46 1014.86
1022.29 1022.50 1022.62 1022.66 1022.66 1022.65 1022.66 1022.69 1022.77 1022.89 1023.05 1023.24 1023.45 1023.67 1023.87 1024.06 1024.22 1024.35 1024.44 1024.48 1024.48 1024.43 1024.32 1024.15 1023.93 1023.65 1023.31 1022.93 1022.51 1022.06 1021.57 1021.07 1020.55 1020.01 1019.46 1018.89 1018.31 1017.72 1017.12 1016.51 1015.91 1015.32 1014.75
1022.66 1022.84 1022.94 1022.98 1023.00 1023.00 1023.02 1023.08 1023.17 1023.30 1023.47 1023.65 1023.85 1024.05 1024.23 1024.39 1024.52 1024.62 1024.67 1024.67 1024.63 1024.54 1024.40 1024.20 1023.95 1023.65 1023.30 1022.90 1022.47 1022.00 1021.51 1021.00 1020.47 1019.93 1019.37 1018.81 1018.23 1017.64 1017.05 1016.46 1015.87 1015.30 1014.74
1022.94 1023.09 1023.18 1023.22 1023.24 1023.26 1023.30 1023.36 1023.46 1023.60 1023.76 1023.94 1024.13 1024.32 1024.48 1024.63 1024.73 1024.80 1024.82 1024.80 1024.73 1024.61 1024.44 1024.22 1023.94 1023.62 1023.26 1022.86 1022.43 1021.97 1021.48 1020.98 1020.46 1019.92 1019.38 1018.82 1018.25 1017.67 1017.09 1016.51 1015.93 1015.36 1014.82
1023.14 1023.26 1023.33 1023.37 1023.38 1023.41 1023.45 1023.51 1023.61 1023.74 1023.90 1024.07 1024.25 1024.43 1024.59 1024.72 1024.82 1024.87 1024.89 1024.85 1024.76 1024.62 1024.43 1024.19 1023.91 1023.58 1023.22 1022.82 1022.40 1021.96 1021.49 1021.01 1020.51 1020.00 1019.47 1018.93 1018.37 1017.81 1017.23 1016.66 1016.08 1015.52 1014.96
1023.27 1023.37 1023.42 1023.44 1023.44 1023.45 1023.48 1023.53 1023.61 1023.73 1023.87 1024.03 1024.20 1024.37 1024.53 1024.66 1024.76 1024.83 1024.84 1024.80 1024.72 1024.58 1024.38 1024.14 1023.86 1023.54 1023.18 1022.80 1022.40 1021.98 1021.54 1021.08 1020.62 1020.13 1019.63 1019.12 1018.58 1018.03 1017.47 1016.90 1016.32 1015.75 1015.19
Thickness
5805 5804 5804 5803 5799 5795 5790 5784 5776 5768 5758 5747 5737 5727 5718 5710 5703 5695 5690 5686 5683 5680 5676 5670 5667 5665 5662 5657 5653 5651 5647 5644 5641 5640 5636 5630 5627 5624 5621 5619 5617 5614 5612
5793 5795 5797 5796 5794 5791 5786 5779 5770 5761 5753 5742 5731 5721 5711 5701 5694 5687 5681 5678 5675 5672 5668 5666 5662 5657 5653 5648 5645 5643 5638 5633 5630 5629 5626 5621 5617 5613 5609 5606 5603 5600 5597
5784 5787 5787 5787 5786 5782 5778 5771 5763 5754 5745 5734 5723 5711 5703 5694 5685 5678 5672 5669 5666 5664 5661 5657 5653 5649 5644 5640 5636 5634 5631 5624 5618 5616 5615 5611 5608 5601 5598 5593 5590 5587 5584
5775 5778 5778 5777 5775 5773 5769 5762 5754 5745 5735 5726 5714 5703 5693 5684 5676 5670 5662 5658 5655 5654 5651 5647 5644 5640 5634 5630 5627 5624 5621 5616 5609 5603 5599 5595 5591 5587 5585 5582 5577 5573 5570
5762 5764 5765 5764 5763 5761 5756 5750 5743 5734 5726 5717 5707 5696 5685 5677 5669 5662 5655 5649 5645 5643 5641 5637 5633 5629 5624 5620 5616 5611 5607 5603 5597 5591 5586 5580 5574 5570 5569 5568 5565 5561 5557
5749 5750 5751 5751 5749 5746 5742 5737 5730 5722 5715 5709 5699 5690 5678 5669 5660 5653 5647 5641 5636 5633 5630 5627 5622 5618 5614 5609 5603 5599 5594 5588 5583 5577 5572 5567 5563 5557 5552 5550 5549 5548 5546
5733 5735 5734 5734 5732 5730 5727 5722 5717 5709 5703 5696 5689 5682 5674 5664 5653 5646 5639 5633 5627 5623 5619 5615 5611 5607 5602 5596 5591 5586 5580 5575 5570 5564 5558 5553 5548 5543 5537 5534 5534 5532 5531
5716 5717 5717 5716 5715 5712 5710 5707 5702 5695 5689 5682 5676 5670 5662 5654 5645 5638 5631 5624 5618 5613 5608 5603 5598 5594 5588 5583 5577 5572 5566 5561 5555 5550 5544 5538 5533 5527 5522 5518 5516 5518 5520
5699 5699 5699 5698 5696 5694 5691 5689 5686 5680 5674 5668 5662 5656 5648 5641 5633 5625 5619 5613 5607 5601 5595 5590 5584 5579 5574 5568 5563 5557 5550 5545 5539 5534 5528 5523 5517 5511 5506 5501 5496 5494 5502
5684 5684 5682 5681 5679 5676 5674 5671 5668 5663 5657 5652 5647 5640 5633 5627 5620 5613 5606 5599 5593 5588 5581 5575 5569 5563 5557 5552 5546 5540 5534 5528 5522 5517 5511 5506 5501 5495 5490 5485 5479 5474 5474
5670 5669 5666 5664 5662 5660 5657 5653 5649 5644 5639 5634 5629 5623 5617 5611 5605 5598 5591 5584 5578 5572 5566 5559 5552 5546 5539 5534 5528 5522 5516 5511 5506 5500 5495 5491 5486 5481 5475 5470 5464 5459 5455
5655 5653 5651 5650 5648 5645 5641 5637 5632 5627 5622 5616 5611 5605 5600 5594 5588 5581 5574 5567 5560 5554 5547 5541 5535 5528 5522 5516 5511 5506 5500 5495 5490 5485 5480 5476 5472 5466 5461 5456 5451 5446 5442
5640 5637 5635 5633 5631 5628 5624 5621 5616 5612 5606 5601 5594 5587 5581 5576 5569 5562 5556 5549 5542 5535 5529 5523 5517 5511 5505 5500 5494 5489 5484 5479 5474 5470 5466 5462 5457 5453 5449 5444 5440 5436 5433
5625 5621 5618 5615 5612 5610 5607 5604 5599 5595 5590 5585 5578 5569 5562 5557 5550 5543 5537 5530 5524 5518 5511 5505 5499 5494 5488 5483 5478 5473 5469 5465 5461 5457 5453 5449 5445 5442 5439 5435 5431 5428 5424
5611 5606 5601 5597 5594 5592 5589 5585 5581 5576 5572 5566 5559 5550 5544 5538 5531 5524 5518 5512 5506 5501 5494 5488 5482 5477 5472 5467 5463 5459 5456 5452 5448 5444 5441 5437 5435 5434 5430 5427 5423 5420 5419
5596 5590 5585 5581 5577 5574 5570 5566 5562 5557 5553 5547 5539 5533 5526 5520 5513 5506 5500 5494 5488 5482 5476 5471 5466 5461 5457 5453 5450 5446 5442 5439 5436 5433 5430 5427 5426 5423 5420 5417 5415 5413 5412
5581 5574 5568 5564 5559 5555 5552 5548 5543 5539 5534 5528 5521 5515 5508 5502 5495 5488 5482 5475 5469 5464 5459 5455 5450 5446 5443 5440 5437 5434 5430 5427 5425 5422 5420 5418 5417 5414 5412 5410 5409 5409 5408
5563 5557 5551 5546 5541 5537 5534 5530 5525 5521 5515 5509 5503 5497 5490 5484 5477 5470 5464 5459 5454 5449 5445 5440 5437 5433 5431 5428 5425 5422 5419 5417 5416 5414 5412 5410 5410 5409 5407 5406 5407 5407 5408
5546 5540 5535 5530 5526 5521 5517 5513 5508 5503 5498 5492 5486 5479 5473 5466 5460 5454 5448 5444 5439 5435 5431 5427 5424 5421 5418 5416 5414 5411 5409 5407 5407 5406 5406 5405 5404 5404 5403 5404 5406 5407 5409
5530 5525 5520 5515 5510 5505 5501 5497 5491 5486 5481 5475 5469 5463 5456 5451 5444 5439 5434 5429 5425 5421 5418 5415 5412 5409 5406 5405 5403 5401 5399 5399 5399 5400 5401 5401 5400 5401 5402 5403 5405 5407 5409
5515 5510 5505 5500 5494 5490 5486 5480 5475 5470 5464 5459 5453 5447 5441 5436 5430 5425 5420 5416 5413 5409 5406 5403 5401 5398 5396 5395 5394 5392 5391 5391 5392 5394 5395 5397 5398 5400 5402 5403 5405 5406 5407
5501 5496 5491 5486 5480 5476 5471 5466 5460 5455 5451 5445 5439 5433 5428 5424 5418 5413 5408 5404 5400 5397 5394 5392 5390 5389 5388 5386 5386 5386 5386 5386 5387 5389 5392 5394 5397 5400 5403 5405 5407 5408 5409
5488 5483 5479 5473 5468 5463 5459 5453 5448 5443 5438 5432 5426 5421 5416 5410 5406 5401 5397 5393 5389 5386 5384 5382 5381 5380 5380 5380 5380 5381 5382 5383 5385 5387 5391 5394 5398 5402 5405 5407 5409 5410 5410
5476 5471 5467 5462 5456 5453 5449 5444 5440 5435 5428 5422 5415 5409 5404 5399 5394 5390 5387 5383 5380 5378 5377 5375 5374 5374 5375 5375 5375 5376 5378 5381 5384 5387 5391 5396 5400 5403 5406 5408 5410 5410 5410
5466 5461 5456 5452 5448 5444 5441 5436 5432 5426 5418 5411 5405 5399 5394 5389 5385 5381 5378 5376 5374 5371 5370 5370 5369 5369 5370 5371 5370 5371 5375 5378 5382 5386 5392 5396 5400 5403 5406 5408 5409 5410 5411
5458 5453 5449 5445 5441 5437 5432 5428 5422 5416 5409 5402 5396 5390 5385 5380 5377 5374 5372 5371 5370 5369 5368 5367 5366 5367 5367 5368 5370 5372 5375 5379 5383 5387 5391 5395 5398 5401 5403 5406 5408 5410 5410